Station MYPF1 - 8720218 - Mayport (Bar Pilots Dock), FL Image indicating link to RSS feed of recent meteorological observations for station MYPF1


Conditions at MYPF1 as of
(6:18 am EDT)
1018 GMT on 04/21/2024:
     

Click on the graph icon in the table below to see a time series plot of the last five days of that observation.

5-day plot - Wind Direction Wind Direction (WDIR): SW ( 230 deg true )
5-day plot - Wind Speed Wind Speed (WSPD): 5.1 kts
5-day plot - Wind Gust Wind Gust (GST): 7.0 kts
5-day plot - Atmospheric Pressure Atmospheric Pressure (PRES):29.94 in
5-day plot - Air Temperature Air Temperature (ATMP): 69.3 °F
5-day plot - Water Temperature Water Temperature (WTMP): 73.0 °F
5-day plot - Wind Speed at 10 Meters Wind Speed at 10 meters (WSPD10M): 5.8 kts
5-day plot - Wind Speed at 20 Meters Wind Speed at 20 meters (WSPD20M): 5.8 kts
5-day plot -  Wind Speed, Wind Gust and Atmospheric Pressure Combined plot of Wind Speed, Gust, and Air Pressure
NOS Water Level Observation Network Water Level
Previous observations
TIME
(EDT)
5-day plot - Wind Direction
WDIR
 
5-day plot - Wind Speed
WSPD
kts
5-day plot - Wind Gust
GST
kts
5-day plot - Wave Height
WVHT
ft
5-day plot - Dominant Wave Period
DPD
sec
5-day plot - Average Wave Period
APD
sec
5-day plot - Mean Wave Direction
MWD
 
5-day plot - Atmospheric Pressure
PRES
in
5-day plot - Pressure Tendency
PTDY
in
5-day plot - Air Temperature
ATMP
°F
5-day plot - Water Temperature
WTMP
°F
5-day plot - Dew Point
DEWP
°F
5-day plot - Salinity
SAL
psu
5-day plot - Visibility
VIS
nmi
5-day plot - Tide (above MLLW)
TIDE
ft
2024-04-21 06:12 am SW 6.0 7.0----29.95- 69.1 73.4----
2024-04-21 06:06 am SW 5.1 6.0----29.95- 69.3 73.4----
2024-04-21 06:00 amWSW 5.1 6.0----29.95-0.01 69.3 73.6----
2024-04-21 05:54 amWSW 5.1 5.1----29.95- 69.3 73.6----
2024-04-21 05:48 amWSW 6.0 7.0----29.95- 69.3 73.6----
2024-04-21 05:42 amWSW 5.1 7.0----29.94- 69.3 73.6----
2024-04-21 05:36 amWSW 5.1 6.0----29.94- 69.4 73.8----
2024-04-21 05:30 amWSW 5.1 8.0----29.95- 69.3 73.8----
2024-04-21 05:24 amWSW 6.0 8.9----29.95- 69.4 73.8----
2024-04-21 05:18 amWSW 6.0 8.9----29.95- 69.6 73.8----
2024-04-21 05:12 amWSW 7.0 8.9----29.95- 69.4 73.8----
2024-04-21 05:06 amWSW 6.0 8.0----29.95- 69.6 73.8----
2024-04-21 05:00 amWSW 7.0 9.9----29.95-0.01 69.6 73.8----
2024-04-21 04:54 amWSW 7.0 9.9----29.95- 69.4 73.8----
2024-04-21 04:48 amWSW 8.0 9.9----29.95- 69.6 73.8----
2024-04-21 04:42 amWSW 8.9 12.0----29.96- 69.6 73.8----
2024-04-21 04:36 amWSW 8.9 12.0----29.96- 69.8 73.8----
2024-04-21 04:30 amWSW 8.9 12.0----29.96- 69.8 73.9----
2024-04-21 04:24 amWSW 7.0 11.1----29.96- 69.8 73.8----
2024-04-21 04:18 am W 8.9 11.1----29.96-- 73.8----
2024-04-21 04:12 am W 8.0 11.1----29.96-- 73.8----
2024-04-21 04:06 am W 8.9 12.0----29.95-- 73.9----
2024-04-21 04:00 am W 8.9 11.1------ 69.8 73.9----
2024-04-21 03:54 am W 8.9 12.0------ 70.0 73.9----
2024-04-21 03:48 am W 9.9 14.0----29.95- 70.0 73.9----
2024-04-21 03:42 am W 8.9 14.0----29.96- 70.0 73.9----
2024-04-21 03:36 am W 12.0 15.9----29.95- 69.8 73.9----
2024-04-21 03:30 am W 13.0 17.1----29.95- 69.8 73.9----
2024-04-21 03:24 am W 15.9 19.0----29.95- 69.8 73.9----
2024-04-21 03:18 am W 13.0 17.1----29.95- 70.0 73.8----
2024-04-21 03:12 am W 12.0 14.0----29.95- 70.2 73.8----
2024-04-21 03:06 am W 12.0 15.9----29.96- 70.3 73.9----
2024-04-21 03:00 am W 11.1 14.0----29.96-0.04 70.5 73.9----
2024-04-21 02:54 am W 9.9 12.0----29.96- 70.7 73.8----
2024-04-21 02:48 am W 8.9 11.1----29.96- 70.7 73.6----
2024-04-21 02:42 am W 9.9 12.0----29.96- 70.9 73.6----
2024-04-21 02:36 amWSW 8.0 9.9----29.96- 70.9 73.4----
2024-04-21 02:30 amWSW 8.9 11.1----29.96- 71.1 73.4----
2024-04-21 02:24 am W 9.9 13.0----29.96- 71.2 73.2----
2024-04-21 02:18 am W 11.1 15.9----29.96- 71.4 73.0----
2024-04-21 02:12 am W 13.0 17.1----29.96- 71.6 73.0----
2024-04-21 02:06 am W 11.1 14.0----29.97- 72.0 72.7----
2024-04-21 02:00 am W 9.9 14.0----29.96-0.03 72.3 72.5----
2024-04-21 01:54 am W 11.1 15.0----29.96- 72.5 72.5----
2024-04-21 01:48 am W 11.1 15.0----29.97- 72.7 72.7----
2024-04-21 01:42 am W 11.1 14.0----29.97- 72.9 72.9----
2024-04-21 01:36 am W 7.0 8.9----29.98- 73.0 73.0----
2024-04-21 01:30 am W 8.0 8.9----29.98- 73.2 73.0----
2024-04-21 01:24 am W 8.0 9.9----29.98- 73.4 73.0----
2024-04-21 01:18 am W 8.0 9.9----29.98- 73.4 72.9----
2024-04-21 01:12 am W 8.0 9.9----29.98- 73.6 72.9----
2024-04-21 01:06 am W 8.0 12.0----29.98- 73.8 72.7----
2024-04-21 01:00 am W 8.0 9.9----29.98+0.00 73.8 72.7----
2024-04-21 12:54 am W 8.0 8.9----29.99- 73.9 72.9----
2024-04-21 12:48 am W 7.0 8.9----29.99- 74.1 72.9----
2024-04-21 12:42 am W 8.0 9.9----29.99- 74.5 72.9----
2024-04-21 12:36 amWSW 8.0 8.9----29.98- 74.7 72.7----
2024-04-21 12:30 amWSW 7.0 8.0----29.99- 74.7 72.7----
2024-04-21 12:24 amWSW 7.0 8.0----29.99- 74.8 72.5----
2024-04-21 12:18 amWSW 6.0 7.0----29.99- 74.8 72.5----
2024-04-21 12:12 amWSW 7.0 8.9----30.00- 75.0 72.5----
2024-04-21 12:06 am W 8.0 11.1----30.00- 75.2 72.5----
2024-04-21 12:00 am W 5.1 5.1----30.00+0.02 75.0 72.5----
2024-04-20 11:54 pm W 4.1 5.1----30.00- 75.2 72.5----
2024-04-20 11:48 pm W 5.1 7.0----30.00- 75.4 72.3----
2024-04-20 11:42 pm W 6.0 7.0----30.00- 75.6 72.1----
2024-04-20 11:36 pmWSW 6.0 7.0----29.99- 75.7 71.8----
2024-04-20 11:30 pmWSW 7.0 8.9----29.99- 75.9 71.4----
2024-04-20 11:24 pmWSW 8.0 9.9----29.99- 76.1 71.4----
2024-04-20 11:18 pmWSW 6.0 8.0----29.99- 75.7 71.4----
2024-04-20 11:12 pmWSW 6.0 8.0----29.99- 75.9 71.2----
2024-04-20 11:06 pmWSW 5.1 7.0----29.99- 75.7 71.2----
2024-04-20 11:00 pmWSW 7.0 8.0----30.00+0.02 76.1 71.1----
2024-04-20 10:54 pmWSW 7.0 8.9----29.99- 76.1 70.9----
2024-04-20 10:48 pmWSW 8.9 8.9----30.00- 76.3 70.9----
2024-04-20 10:42 pmWSW 8.0 11.1----29.99- 76.5 70.9----
2024-04-20 10:36 pmWSW 9.9 13.0----29.99- 75.9 71.1----
2024-04-20 10:30 pm SW 8.9 11.1----29.99- 75.2 71.4----
2024-04-20 10:24 pm SW 6.0 8.0----29.99- 75.0 71.4----
2024-04-20 10:18 pmSSW 4.1 7.0----29.99- 74.3 71.1----
2024-04-20 10:12 pmSSW 4.1 6.0----29.99- 74.1 71.1----
2024-04-20 10:06 pmSSW 5.1 8.0----29.99- 74.1 70.9----
2024-04-20 10:00 pmSSW 5.1 7.0----29.98+0.00 74.1 70.9----
2024-04-20 09:54 pm S 4.1 5.1----29.98- 74.5 70.7----
2024-04-20 09:48 pm S 4.1 5.1----29.98- 74.5 70.7----
2024-04-20 09:42 pm S 4.1 6.0----29.98- 74.7 70.5----
2024-04-20 09:36 pm S 4.1 6.0----29.98- 74.8 70.3----
2024-04-20 09:30 pm S 4.1 6.0----29.97- 74.8 70.3----
2024-04-20 09:24 pm S 5.1 7.0----29.98- 75.0 70.3----
2024-04-20 09:18 pmSSE 4.1 6.0----29.98- 75.2 70.3----
2024-04-20 09:12 pm S 4.1 7.0----29.98- 75.4 70.3----
2024-04-20 09:06 pm S 5.1 7.0----29.97- 75.4 70.5----
2024-04-20 09:00 pm S 6.0 8.0----29.97+0.00 75.6 70.5----
2024-04-20 08:54 pm S 5.1 7.0----29.98- 75.6 70.5----
2024-04-20 08:48 pm S 5.1 7.0----29.98- 75.6 70.5----
2024-04-20 08:42 pm S 4.1 5.1----29.98- 75.7 70.5----
2024-04-20 08:36 pm S 4.1 8.0----29.98- 75.9 70.5----
2024-04-20 08:30 pmSSW 4.1 6.0----29.98- 75.9 70.5----
2024-04-20 08:24 pm S 4.1 6.0----29.98- 76.1 70.5----
2024-04-20 08:18 pm S 4.1 6.0------ 76.3 70.5----
2024-04-20 08:12 pm S 4.1 5.1------ 76.6 70.5----
2024-04-20 08:06 pm S 4.1 7.0------ 77.0 70.5----
2024-04-20 08:00 pm S 4.1 7.0----29.98+0.00 77.2 70.3----
2024-04-20 07:54 pm S 4.1 6.0----29.97- 77.4 70.3----
2024-04-20 07:48 pmSSE 4.1 6.0----29.97-- 70.3----
2024-04-20 07:42 pm S 2.9 6.0----29.97-- 70.3----
2024-04-20 07:36 pm S 4.1 7.0----29.98-- 70.3----
2024-04-20 07:30 pmSSE 2.9 8.0----29.98- 77.5 70.3----
2024-04-20 07:24 pmSSE 4.1 7.0----29.98- 77.9 70.5----
2024-04-20 07:18 pmSSE 4.1 8.0----29.98-- 70.5----
2024-04-20 07:12 pmSSE 5.1 8.0----29.98-- 70.5----
2024-04-20 07:00 pm S 5.1 8.0----29.98-0.01 78.8 70.7----
2024-04-20 06:54 pm S 4.1 8.0----29.98- 78.6 70.7----
2024-04-20 06:48 pm S 5.1 8.9----29.98- 78.4 70.9----
2024-04-20 06:42 pmSSE 6.0 11.1----29.98- 77.9 70.9----
2024-04-20 06:36 pmSSE 5.1 9.9----29.98- 77.7 70.9----
2024-04-20 06:30 pmSSE 7.0 11.1----29.98- 77.7 71.1----
2024-04-20 06:24 pmSSE 7.0 11.1----29.98- 77.9 71.1----
2024-04-20 06:18 pmSSE 6.0 9.9----29.98- 77.9 71.2----
2024-04-20 06:12 pm SE 7.0 9.9----29.98- 78.4 71.4----
2024-04-20 06:06 pmSSE 5.1 12.0----29.98- 79.0 71.4----
2024-04-20 06:00 pm-------29.98-0.04 79.0 71.4----
2024-04-20 05:54 pm-------29.98- 79.7 71.4----
2024-04-20 05:48 pmSSE 8.9 13.0----29.98- 79.3 72.3----
2024-04-20 05:42 pmSSE 6.0 13.0----29.98- 79.5 72.5----
2024-04-20 05:36 pmSSE 9.9 14.0----29.98- 79.0 73.0----
2024-04-20 05:30 pm SE 6.0 13.0----29.98- 79.7 73.8----
2024-04-20 05:24 pm SE 8.0 13.0----29.98- 79.7 74.1----
2024-04-20 05:18 pmSSE 8.0 13.0----29.97- 79.5 74.5----
2024-04-20 05:12 pm SE 8.9 14.0----29.97- 79.3 74.7----
2024-04-20 05:06 pm SE 8.9 14.0----29.97- 79.5 74.8----
2024-04-20 05:00 pm SE 9.9 15.0----29.97-0.07 79.5 74.8----
2024-04-20 04:54 pmSSE 9.9 14.0----29.98- 79.9 74.7----
2024-04-20 04:48 pmSSE 11.1 15.0----29.98-- 74.7----
2024-04-20 04:42 pm SE 9.9 13.0----29.98-- 74.5----
2024-04-20 04:36 pm SE 8.9 13.0----29.98-- 74.7----
2024-04-20 04:30 pm SE 8.0 13.0----29.98- 81.3 74.8----
2024-04-20 04:24 pm SE 8.9 14.0----29.98- 81.5 74.5----
2024-04-20 04:18 pm SE 8.9 13.0------ 81.3 74.8----
2024-04-20 04:12 pm SE 9.9 14.0------ 81.1 74.8----
2024-04-20 04:06 pm SE 8.9 12.0------ 81.5 74.8----
2024-04-20 04:00 pm-------29.99-0.07 81.0 75.0----
2024-04-20 03:54 pm-------29.99- 80.8 74.5----
2024-04-20 03:48 pm SE 8.9 12.0----29.99- 80.8 74.7----
2024-04-20 03:42 pm SE 8.0 11.1----30.00- 81.0 74.7----
2024-04-20 03:36 pm SE 6.0 12.0----30.00- 82.6 74.7----
2024-04-20 03:30 pm SE 8.9 12.0----30.00- 81.9 74.7----
2024-04-20 03:24 pm SE 9.9 12.0----30.00- 82.0 74.7----
2024-04-20 03:18 pmESE 9.9 12.0----30.01- 82.8 74.8----
2024-04-20 03:12 pm SE 5.1 11.1----30.01- 83.1 74.8----
2024-04-20 03:06 pm SE 8.9 11.1----30.01- 82.0 74.8----
2024-04-20 03:00 pm SE 8.0 12.0----30.02-0.07------
2024-04-20 02:54 pmESE 8.0 9.9----30.02-------
2024-04-20 02:48 pmESE 7.0 11.1----30.02- 83.1 74.5----
2024-04-20 02:42 pmESE 6.0 8.9----30.03- 82.9 74.3----
2024-04-20 02:36 pm SE 5.1 8.9----30.03- 82.9 74.5----
2024-04-20 02:30 pm SE 7.0 11.1------ 82.9 74.3----
2024-04-20 02:24 pm SE 5.1 11.1------ 83.5 74.1----
2024-04-20 02:18 pm SE 8.0 12.0----30.03- 82.4 74.1----
2024-04-20 02:12 pm SE 6.0 11.1----30.03- 82.6 73.8----
2024-04-20 02:06 pmESE 8.0 9.9----30.04- 82.0 73.9----
2024-04-20 02:00 pmESE 7.0 8.9----30.04-0.05 81.3 73.9----
2024-04-20 01:54 pmESE 5.1 8.9----30.04- 81.5 73.8----
2024-04-20 01:48 pm SE 7.0 9.9----30.04- 80.8 73.6----
2024-04-20 01:42 pm SE 6.0 8.9----30.05- 80.6 73.4----
2024-04-20 01:36 pm SE 7.0 8.9----30.05- 81.3 73.6----
2024-04-20 01:30 pm SE 8.0 9.9----30.05- 81.3 73.6----
2024-04-20 01:24 pm E 6.0 8.9----30.05- 81.7 73.4----
2024-04-20 01:18 pm SE 7.0 8.9----30.06- 81.7 73.0----
2024-04-20 01:12 pmESE 7.0 8.0----30.06- 81.7 72.9----
2024-04-20 01:06 pmESE 6.0 8.0----30.06- 81.9 72.9----
2024-04-20 01:00 pm-------30.06-0.03 82.4 72.7----
2024-04-20 12:54 pm-------30.06- 81.9 72.7----
2024-04-20 12:48 pm E 4.1 7.0----30.06- 82.2 72.7----
2024-04-20 12:42 pm E 4.1 6.0----30.07- 82.2 72.5----
2024-04-20 12:36 pm E 5.1 7.0----30.07- 81.9 72.7----
2024-04-20 12:30 pm E 4.1 6.0----30.07- 81.9 72.7----
2024-04-20 12:24 pm NE 2.9 5.1----30.07- 81.3 72.5----
2024-04-20 12:18 pmENE 1.9 4.1----30.08- 81.5 72.5----
2024-04-20 12:12 pmNNW 1.0 2.9----30.08- 81.3 72.7----
2024-04-20 12:06 pm W 1.0 1.9----30.08- 81.5 72.5----
2024-04-20 12:00 pmWSW 1.0 1.9----30.09+0.00 81.0 72.7----
2024-04-20 11:54 am S 1.9 5.1----30.08- 81.0 72.5----
2024-04-20 11:48 am W 1.9 5.1----30.09- 80.2 72.3----
2024-04-20 11:42 am W 4.1 7.0----30.09- 79.7 72.3----
2024-04-20 11:36 am W 5.1 6.0----30.09- 79.5 72.1----
2024-04-20 11:30 amWSW 4.1 5.1----30.09- 79.3 72.0----
2024-04-20 11:24 am W 5.1 6.0----30.09- 79.2 72.0----
2024-04-20 11:18 am W 4.1 5.1----30.09- 78.8 71.6----
2024-04-20 11:12 amWSW 5.1 6.0----30.09- 78.6 71.4----
2024-04-20 11:06 amWSW 2.9 5.1----30.09- 77.9 71.4----
2024-04-20 11:00 am SW 4.1 5.1----30.09+0.03 77.7 71.4----
2024-04-20 10:54 am SW 4.1 5.1----30.09- 77.4 71.4----
2024-04-20 10:48 amWSW 4.1 6.0----30.09- 76.8 71.1----
2024-04-20 10:42 am W 4.1 6.0----30.09- 76.6 71.1----
2024-04-20 10:36 amWSW 5.1 6.0----30.09- 76.1 70.9----
2024-04-20 10:30 amWSW 4.1 5.1----30.09- 75.6 71.1----
2024-04-20 10:24 am W 4.1 6.0----30.09- 75.0 71.1----
2024-04-20 10:18 amWSW 5.1 6.0----30.09- 74.8 71.1----
2024-04-20 10:12 am W 5.1 7.0----30.09- 74.5 70.9----
2024-04-20 10:06 am W 5.1 7.0----30.09- 74.3 71.1----
2024-04-20 10:00 am W 5.1 6.0----30.09+0.04 74.1 71.2----
2024-04-20 09:54 am W 5.1 6.0----30.09- 73.9 71.1----
2024-04-20 09:48 am W 2.9 6.0----30.08-- 70.5----
2024-04-20 09:42 am W 4.1 7.0----30.08-- 70.3----
2024-04-20 09:36 am W 5.1 8.0----30.09-- 70.2----
2024-04-20 09:30 am W 5.1 7.0----30.09- 72.7 70.3----
2024-04-20 09:24 am W 6.0 8.0----30.09- 72.5 70.3----
2024-04-20 09:18 am W 5.1 6.0----30.09- 72.3 70.3----
2024-04-20 09:12 amWNW 6.0 8.0----30.09- 72.1 70.3----
2024-04-20 09:06 am W 5.1 8.0----30.08- 72.1 70.3----
2024-04-20 09:00 am W 6.0 8.9----30.08+0.05 71.8 70.3----
2024-04-20 08:54 am W 7.0 8.0----30.08- 71.6 70.3----
2024-04-20 08:48 am W 7.0 8.0----30.08- 71.6 70.3----
2024-04-20 08:42 am W 6.0 8.0----30.08- 71.4 69.8----
2024-04-20 08:36 am W 6.0 8.0----30.08- 71.4 69.8----
2024-04-20 08:30 am W 6.0 8.0----30.08- 71.2 69.8----
2024-04-20 08:24 am W 7.0 8.9----30.08- 71.1 69.8----
2024-04-20 08:18 am W 6.0 8.9----30.08- 70.9 69.8----
2024-04-20 08:12 am W 7.0 8.0----30.07- 70.7 69.8----
2024-04-20 08:06 am W 8.9 9.9----30.07- 70.5 70.0----
2024-04-20 08:00 am W 8.9 9.9----30.06+0.04 70.3 70.0----
2024-04-20 07:54 am W 8.0 8.9----30.06- 70.3 70.0----
2024-04-20 07:48 am W 7.0 9.9----30.06- 70.2 70.0----
2024-04-20 07:42 am W 8.0 8.9----30.06- 70.0 70.2----
2024-04-20 07:36 am W 7.0 8.9----30.06- 70.0 70.2----
2024-04-20 07:30 am W 7.0 8.9----30.06- 70.0 70.2----
2024-04-20 07:24 am W 7.0 9.9----30.06- 69.8 70.2----
2024-04-20 07:18 am W 8.0 9.9----30.06- 69.8 70.2----
2024-04-20 07:12 am W 8.0 8.9----30.05- 69.8 70.2----
2024-04-20 07:06 am W 8.0 9.9----30.05- 69.8 70.5----
2024-04-20 07:00 am W 8.0 9.9----30.05+0.02 69.8 70.7----
2024-04-20 06:54 am W 8.0 8.9----30.05- 69.8 70.9----